Location: Newark
(9.4667°S, 159.8167°E)
Time: 14:59:29
(UTC+00:00)

Explorer 7 - Pass Details

Date: 19 November 2019
Orbit: 485 x 680 km, 50.3° (Epoch: 14 December)

Event Time Altitude Azimuth Distance (km) Brightness Sun altitude
Rises 09:58:53 0° 225° (SW) 3,009 11.5 -35.6°
Reaches altitude 10° 10:01:17 10° 230° (SW) 2,106 10.5 -36.1°
Enters shadow 10:03:03 22° 237° (WSW) 1,470 9.5 -36.5°
